Hourly Data Report for March 01, 2021

KUGAARUK CLIMATE
NUNAVUT
Current Station Operator: ECCC - MSC

68°32'15.060" N
89°47'47.020" W
15.80 m
2303094
71407
NBB

Download Data

Hourly Data (March 2021)
Hourly Data Report for March 1, 2021
TIME
LST
Temp Definition
°C
Dew Point Definition
°C
Rel Hum Definition
%
Precip. Amount Definition
mm

Wind Dir Definition
10's deg

Wind Spd Definition
km/h
Visibility Definition
km
Stn Press Definition
kPa
Hmdx Definition


Wind Chill Definition


Weather Definition


00:00 -41.1 -44.8 67 0.0 6 15   100.39   -55 LegendNANA
01:00 -41.8 -45.6 67 0.0 8 10   100.48   -53 LegendNANA
02:00 -40.0 -43.8 67 0.0 8 10   100.56   -51 LegendNANA
03:00 -41.2 -45.0 67 0.0 8 10   100.60   -53 LegendNANA
04:00 -42.4 -46.3 66 0.0 7 13   100.66   -56 LegendNANA
05:00 -40.2 -43.9 68 0.0 6 15   100.71   -54 LegendNANA
06:00 -42.1 -46.1 65 0.0 7 12   100.75   -55 LegendNANA
07:00 -43.2 -47.1 65 0.0 7 9   100.79   -54 LegendNANA
08:00 -42.4 -46.6 64 0.0 7 11   100.84   -55 LegendNANA
09:00 -39.9 -43.8 66 0.0 8 10   100.91   -51 LegendNANA
10:00 -39.9 -44.2 64 0.0 10 2   100.89   -43 LegendNANA
11:00 -39.4 -43.9 63 0.6 23 5   100.94   -46 LegendNANA
12:00 -41.9 -46.5 61 0.4 3 2   100.98   -45 LegendNANA
13:00 -38.6 -43.1 63 0.0 25 11   101.02   -50 LegendNANA
14:00 -39.0 -43.4 64 0.0 26 11   101.04   -51 LegendNANA
15:00 -39.5 -43.6 65 0.0 27 6   101.06   -47 LegendNANA
16:00 -40.0 -43.8 67 0.0 24 9   101.06   -50 LegendNANA
17:00 -41.4 -45.3 67 0.0 25 10   101.07   -53 LegendNANA
18:00 -39.4 -43.1 68 0.0 26 17   101.02   -54 LegendNANA
19:00 -39.8 -43.5 67 0.0 26 10   100.98   -51 LegendNANA
20:00 -40.5 -44.3 67 0.0 25 12   100.98   -53 LegendNANA
21:00 -45.5 -49.5 64 0.0 5 4   100.94   -52 LegendNANA
22:00 -45.5 -49.5 64 0.0 5 5   100.94   -53 LegendNANA
23:00 -44.7 -48.7 65 0.0 14 3   100.92   -49 LegendNANA

Notes on Data Quality.

Legend

  • E = Estimated
  • M = Missing
  • NA = Not Available*
  • [empty] = Indicates an unobserved value
Date modified: